Theta_e
302 296 294 293 295 296 297 296 295 294 297 296 296 295 293 294 293 292 293 294 293 295 296 296 296 296 297 299 301 302 300 299 300 300 302 303 304 304 304 304 306 306 306 313 309 308 308 308 307 309 313 318 322 324 325 325 326 328 329 329 328 330 331 330 330 331 332 331 331 331 332 332 333 333 334 334 335 336 335 334 333 332 331 331 331 330
299 295 295 297 297 297 295 293 294 294 295 294 293 293 291 295 293 293 294 293 294 294 296 291 293 296 297 300 301 302 299 299 300 301 303 303 304 305 306 306 307 307 308 305 305 305 305 306 308 307 308 310 314 319 322 323 324 326 328 328 328 329 329 329 329 329 329 331 331 330 329 330 331 331 331 332 335 336 336 336 335 334 334 333 333 329
295 293 296 295 292 292 292 293 294 295 293 294 294 294 293 292 294 293 293 293 294 293 295 292 294 297 299 300 302 301 301 302 303 303 303 304 305 305 304 305 306 306 306 305 304 305 305 307 309 307 307 308 311 314 318 321 323 324 325 327 328 328 328 328 329 328 328 330 331 331 331 332 331 333 332 333 335 336 335 336 336 335 334 333 331 328
292 295 296 292 294 293 292 293 295 294 295 294 293 292 291 295 292 291 293 293 292 293 295 295 294 297 299 300 299 301 301 300 300 298 299 301 301 303 304 305 304 304 305 305 305 305 304 306 305 306 306 306 307 309 312 316 319 322 323 324 326 327 327 327 328 327 329 329 329 330 331 333 332 330 329 332 332 333 332 332 334 333 332 332 330 329
293 292 289 292 294 296 292 292 294 294 293 293 296 295 293 290 292 294 293 292 291 291 290 292 294 295 298 296 298 295 292 292 295 295 296 297 300 301 303 302 302 301 302 304 305 305 304 303 304 305 305 306 305 307 308 311 315 317 320 322 324 325 325 326 325 327 328 328 329 328 329 330 327 326 327 327 327 330 330 331 332 332 333 332 331 330
291 291 291 291 292 294 294 292 295 296 293 293 294 296 295 295 293 290 292 293 293 294 291 290 289 291 295 295 295 297 295 296 296 296 300 300 299 299 298 300 301 302 302 302 302 304 304 303 303 304 304 303 305 305 307 309 311 314 317 319 322 323 324 324 324 325 326 326 325 324 323 320 321 320 322 321 323 325 326 327 331 333 334 334 333 331
292 288 291 293 293 295 295 294 296 298 294 291 293 294 293 294 295 294 292 294 290 288 291 289 288 288 296 295 296 294 294 296 298 298 299 298 299 298 300 301 301 301 302 301 300 300 299 301 301 302 303 305 304 305 307 308 308 311 314 318 319 321 322 323 323 324 323 323 324 324 323 322 321 320 322 324 325 326 327 329 328 329 331 332 332 331
289 289 291 294 295 296 294 292 294 295 294 291 292 292 294 296 295 295 294 295 292 292 292 290 293 288 289 294 295 291 292 296 298 299 299 300 299 299 301 302 303 304 303 303 303 303 301 300 300 301 303 303 304 305 304 306 308 310 312 316 317 319 321 322 322 323 323 322 323 323 323 322 322 322 322 324 324 326 327 327 326 327 327 328 329 330
291 289 292 292 294 293 294 295 297 296 295 293 288 294 296 297 297 295 296 292 291 291 289 291 293 288 288 294 292 291 293 297 298 298 298 300 301 301 302 302 302 302 303 302 303 303 301 302 303 302 305 306 305 306 307 307 308 311 313 315 317 319 320 321 321 321 322 322 322 322 322 321 322 323 323 324 325 324 325 325 325 325 325 325 325 326
292 293 293 294 294 292 292 288 291 296 296 290 291 293 292 293 293 295 293 293 290 288 286 288 288 286 288 296 293 291 291 294 298 297 298 300 300 301 301 302 302 301 303 303 301 302 303 304 304 304 304 306 307 307 307 308 309 311 313 314 316 317 319 320 320 320 321 322 321 322 322 321 321 322 322 323 322 322 323 322 323 323 323 324 323 323
292 292 293 293 293 293 290 290 291 292 294 293 294 296 295 295 293 292 291 290 289 284 287 285 285 286 285 295 294 293 295 296 296 297 298 300 302 301 301 300 301 300 301 303 303 303 304 303 303 304 306 306 308 308 309 310 311 311 313 314 315 317 318 318 318 319 320 321 321 321 321 321 321 321 321 319 318 319 318 318 320 320 321 321 321 322
293 294 295 293 290 292 294 292 292 291 293 295 296 294 293 291 293 291 289 290 285 284 284 284 284 286 283 289 293 294 292 291 296 298 298 299 300 302 302 301 300 299 300 302 304 305 304 305 305 306 307 307 308 309 310 310 311 312 313 314 314 312 313 315 316 317 318 319 320 321 321 320 321 321 320 319 318 317 316 316 317 319 319 318 318 318
292 293 293 293 294 292 295 293 291 292 293 294 294 293 288 285 286 283 286 282 283 283 284 284 284 283 284 292 293 293 294 294 294 297 298 299 299 302 302 302 301 301 300 302 303 305 306 307 307 307 306 308 309 309 309 310 311 312 313 313 312 311 311 312 314 315 317 317 317 318 319 320 320 320 320 319 318 319 318 318 318 317 316 315 315 314
290 294 293 294 295 294 297 291 288 289 292 293 292 290 287 282 281 280 281 280 281 283 283 284 286 282 290 292 296 295 296 294 294 296 298 297 298 299 300 300 300 301 299 300 302 304 305 306 306 306 306 307 308 308 309 309 311 311 313 314 315 312 310 310 311 313 314 314 315 316 316 317 317 317 318 318 317 318 318 319 318 317 318 318 316 316
285 285 291 293 291 297 293 295 294 294 292 292 296 295 289 288 283 278 280 280 282 283 282 284 282 286 285 291 293 294 294 293 292 292 294 294 295 296 297 297 298 299 299 300 302 303 304 304 304 306 306 307 307 308 309 309 309 311 312 313 314 312 310 310 311 312 313 314 314 314 315 315 316 316 316 317 318 318 318 318 318 319 320 319 320 319
288 288 290 292 291 291 295 294 295 295 292 292 291 293 290 288 292 284 282 282 280 282 281 282 284 290 291 294 294 294 293 293 293 293 293 295 296 296 298 302 301 299 299 300 301 302 302 302 303 305 305 306 306 306 307 308 309 311 312 311 312 313 311 311 311 312 313 314 315 315 314 314 314 314 315 316 316 316 317 318 317 318 319 318 318 318
285 285 290 294 292 292 293 292 292 295 287 291 290 288 290 292 288 278 278 278 278 281 282 286 286 291 293 294 297 294 292 295 293 293 293 296 297 297 301 304 300 299 301 301 302 303 303 302 302 305 306 306 305 306 308 308 309 310 310 310 310 309 308 309 310 312 312 312 312 312 313 313 313 313 312 314 315 315 316 315 315 316 316 317 316 316
287 286 289 291 291 292 291 290 293 291 293 292 286 291 290 293 294 289 283 281 282 280 283 282 284 287 287 286 296 294 293 295 294 295 295 296 296 298 302 302 300 300 300 300 301 302 303 304 305 305 305 306 306 306 306 305 305 306 308 308 310 309 309 309 308 309 309 309 310 311 311 311 312 312 312 313 313 314 313 313 313 313 313 313 314 313
294 284 288 288 290 293 292 293 293 293 292 293 292 297 291 285 284 286 286 278 278 277 281 283 281 282 287 290 294 292 293 295 294 295 294 296 297 300 301 299 300 301 303 304 304 304 305 306 306 306 305 304 304 304 305 305 305 306 306 306 307 308 308 307 307 307 308 307 309 309 309 310 309 310 310 310 311 311 310 310 311 311 311 312 312 311
295 288 285 290 291 292 294 294 288 290 293 293 292 291 291 292 290 285 285 286 286 282 277 282 280 284 289 291 294 294 294 296 294 293 294 297 299 300 299 299 301 303 304 304 305 305 305 305 304 304 305 305 304 304 304 304 305 305 305 305 305 305 305 306 306 307 307 308 307 307 307 307 307 307 307 308 308 309 309 309 310 310 310 310 310 310
290 293 285 288 292 291 288 291 290 292 288 287 289 288 291 288 290 290 287 285 284 282 280 281 280 286 292 293 293 295 293 292 292 295 298 298 298 297 297 301 302 303 304 304 305 304 304 304 303 302 301 302 300 300 301 302 303 303 303 302 302 303 303 303 304 304 305 305 305 305 305 306 306 306 306 306 307 307 307 308 308 308 309 309 308 309
288 287 286 286 287 287 290 290 289 292 294 291 290 288 291 286 285 283 282 283 280 284 278 278 280 288 296 289 293 294 293 292 293 292 296 298 296 296 298 299 302 303 303 303 303 303 303 303 302 301 301 300 302 302 301 301 302 302 302 301 301 302 302 302 303 302 303 303 304 303 304 304 304 304 304 304 305 305 305 306 306 307 306 305 306 307
294 291 288 284 287 289 289 290 289 288 289 291 290 291 295 292 291 287 282 282 281 280 281 282 279 285 296 291 290 291 291 291 291 291 293 295 295 297 299 300 301 303 303 302 302 301 302 302 301 300 301 302 301 302 302 302 302 303 302 302 301 303 301 301 300 300 301 302 303 302 302 302 302 302 301 301 303 303 303 303 304 304 303 304 305 305
292 288 286 284 288 289 289 289 290 288 291 291 291 290 291 289 291 291 288 286 285 281 282 282 279 287 295 291 290 290 290 289 289 289 293 296 297 298 300 300 301 301 301 301 301 300 301 300 299 302 304 304 303 302 301 302 302 302 302 301 302 301 300 300 300 300 301 301 302 301 301 301 300 299 300 300 301 301 301 301 301 300 301 301 302 302
288 289 288 283 283 286 288 290 290 292 292 290 291 291 292 291 289 286 286 287 285 283 285 284 279 286 291 292 291 289 291 292 293 293 290 298 299 300 300 301 302 301 301 300 301 301 301 301 301 301 301 302 301 301 301 300 300 300 300 300 300 300 300 300 299 300 301 301 302 302 301 300 300 300 300 300 300 300 300 300 300 300 299 299 300 301
290 289 288 282 279 277 277 279 282 285 287 290 289 291 291 291 288 286 285 285 283 285 284 285 285 291 292 294 294 293 293 292 294 294 290 294 300 300 301 302 301 301 302 301 301 301 301 300 299 300 300 301 299 299 300 300 299 299 299 299 298 298 299 299 299 299 300 300 301 300 300 299 299 299 298 298 299 299 299 299 299 299 299 299 299 299
288 288 290 289 286 285 286 288 292 294 289 286 288 289 289 292 292 293 289 286 284 285 282 287 289 290 289 293 292 294 294 295 295 294 295 295 296 300 302 302 302 301 301 300 300 301 298 299 299 299 299 298 298 298 298 298 298 298 298 298 297 297 297 297 297 298 298 298 298 298 298 298 297 297 298 298 298 298 298 298 298 297 297 298 297 297
288 287 289 291 291 292 293 290 291 295 290 291 289 287 290 289 289 288 287 285 291 284 282 289 292 287 290 293 294 295 295 294 295 295 296 296 299 300 300 299 295 296 297 296 296 297 300 300 299 299 298 298 298 297 297 296 296 296 296 296 296 296 296 296 296 297 297 297 297 297 297 297 296 296 296 296 297 297 297 297 297 297 297 296 296 296
288 287 291 289 289 290 290 291 292 293 293 292 291 290 288 289 289 286 287 292 291 286 285 291 291 288 291 293 295 296 296 296 295 296 297 298 298 297 295 296 298 299 299 297 299 298 299 300 300 299 298 297 296 296 296 296 296 295 295 295 295 295 294 294 295 296 296 296 296 295 295 295 295 295 295 295 295 295 295 296 296 295 295 295 295 296
289 288 289 287 288 289 288 288 290 292 289 290 291 290 290 289 289 290 291 293 292 290 293 294 292 291 294 294 296 297 298 297 296 295 295 295 297 298 297 298 299 299 298 299 299 299 299 299 298 297 297 296 295 295 294 295 295 294 294 294 294 294 293 295 295 295 295 295 294 294 294 294 294 294 294 294 294 294 294 294 294 294 294 294 294 295
290 286 288 286 285 285 286 286 288 290 289 288 289 291 290 290 290 291 292 293 293 292 293 293 291 290 296 298 297 299 296 294 294 294 296 298 299 298 298 298 299 299 300 299 299 298 298 297 296 295 295 295 294 294 294 294 294 294 294 293 293 293 293 294 294 294 294 293 293 293 293 293 293 293 293 293 293 293 292 292 292 291 292 292 293 293
291 285 286 286 285 283 284 285 286 286 287 286 286 288 289 288 287 289 288 293 291 289 291 290 288 289 295 296 297 296 295 294 294 297 297 298 298 298 298 299 299 299 299 298 297 297 296 295 295 295 295 294 294 293 294 294 293 294 293 293 292 292 293 293 293 293 293 293 293 293 292 292 292 292 292 291 291 291 289 289 289 290 290 290 291 292
288 287 285 285 283 282 280 283 285 286 285 283 284 287 290 290 291 292 293 293 294 294 289 287 288 295 295 296 295 294 294 295 296 296 298 299 299 299 298 299 300 299 299 299 297 296 296 296 295 295 294 294 294 293 292 292 293 293 292 292 291 292 292 293 293 293 292 292 292 292 292 291 291 291 291 291 289 289 289 289 289 289 289 289 289 290
287 288 287 287 283 281 279 281 285 283 277 280 292 295 293 290 290 289 289 291 293 294 292 295 295 298 295 295 295 295 294 295 297 299 300 300 300 299 298 299 300 299 298 297 297 296 296 295 295 294 294 293 293 292 292 291 291 291 291 291 292 292 292 292 292 292 291 291 291 291 291 290 289 289 290 289 289 289 289 289 289 289 290 290 289 289
287 288 288 286 285 280 280 282 281 276 279 291 293 296 296 294 293 292 293 293 293 294 294 294 295 296 295 296 297 298 298 298 298 299 299 298 299 300 300 298 297 296 297 296 295 295 295 294 294 293 293 292 292 292 292 292 291 292 292 291 291 291 291 291 291 291 290 290 290 290 289 289 289 289 289 289 288 288 288 288 288 288 289 289 289 289
287 288 287 285 286 284 281 282 276 278 287 291 293 289 293 293 293 292 291 294 294 294 294 293 295 296 297 297 297 297 298 297 297 296 297 296 296 298 296 297 297 296 296 296 296 295 294 293 293 293 292 291 292 291 291 290 290 291 290 290 290 289 290 290 290 289 289 289 289 289 289 288 288 287 287 287 287 287 287 287 287 287 288 288 289 289
293 289 289 285 288 281 281 283 282 287 287 289 290 289 290 287 288 288 285 289 293 294 294 293 294 296 297 298 298 296 294 294 295 297 298 295 295 294 296 295 297 295 296 295 295 293 293 293 292 291 291 291 291 290 290 289 290 290 289 289 289 288 288 288 288 288 288 288 288 287 288 287 287 286 286 286 286 286 286 286 286 287 288 287 287 288
295 289 291 287 284 287 282 280 281 282 279 286 294 295 295 296 295 295 292 288 298 295 296 295 294 295 296 296 296 295 294 293 291 294 297 295 295 292 291 292 292 293 292 290 290 290 290 290 290 290 291 290 289 288 289 288 289 289 288 288 288 288 288 287 287 287 287 287 287 287 287 287 286 285 285 285 285 285 285 286 286 287 287 286 286 286
293 295 293 289 287 285 284 281 280 278 282 292 293 294 296 296 296 295 289 286 296 296 296 295 294 295 296 295 295 294 292 288 290 295 299 297 293 293 292 291 291 291 291 291 290 289 289 290 289 288 289 289 287 287 287 287 288 288 287 287 286 286 286 285 286 285 285 286 286 286 286 286 285 285 284 284 284 285 284 285 285 286 286 286 286 286
288 290 290 287 285 286 284 282 281 284 285 290 291 291 291 294 298 293 283 285 295 294 297 295 294 295 296 296 295 293 292 289 292 298 295 293 292 292 291 290 289 289 288 289 289 289 289 288 289 288 287 286 286 286 286 287 286 285 286 285 285 284 284 284 284 285 285 285 285 285 285 285 284 284 283 283 284 284 284 285 285 285 285 285 286 286
286 286 288 285 286 286 285 284 287 287 290 289 289 290 291 297 295 286 282 290 293 295 295 297 296 297 297 294 295 291 295 296 295 292 290 290 290 289 290 290 289 289 288 288 287 287 288 288 287 286 285 285 285 285 285 286 286 285 285 284 284 283 283 284 284 284 284 284 284 283 283 283 283 282 283 283 283 284 283 284 284 284 284 284 285 285
285 286 286 288 285 285 286 284 284 288 293 293 290 292 294 293 284 284 295 296 297 295 293 295 297 297 296 296 295 297 294 288 290 291 290 290 290 288 288 287 287 286 286 286 286 287 287 286 286 285 284 284 284 284 284 284 284 284 284 283 281 282 283 283 282 282 282 282 282 282 281 281 281 282 282 282 283 282 282 283 283 283 283 284 284 282
285 284 282 283 286 286 286 283 282 278 288 294 292 291 293 289 291 296 294 291 293 293 294 293 295 296 296 295 295 293 289 289 289 290 290 288 288 287 287 287 286 286 285 285 285 285 286 285 284 283 283 283 283 282 282 282 282 282 282 280 280 281 281 281 280 280 280 280 279 279 279 279 279 279 281 281 281 281 281 282 282 282 283 282 282 282
291 285 284 286 289 282 282 280 282 289 291 294 294 289 293 296 297 296 298 295 292 292 293 295 294 295 294 296 291 289 289 289 288 288 288 288 288 287 287 286 285 284 283 284 284 284 284 284 283 282 281 281 280 280 280 280 279 280 279 279 280 280 279 278 278 278 278 277 277 277 277 277 278 279 279 280 280 280 280 281 282 282 283 283 283 283
290 288 290 286 290 287 285 288 292 292 293 295 297 298 298 299 295 294 296 297 296 294 290 293 295 292 293 293 291 290 288 289 288 288 287 287 287 286 285 285 284 283 283 282 282 282 283 283 281 281 279 279 278 278 277 278 277 277 277 278 278 277 276 276 276 276 275 274 275 275 275 276 277 278 278 278 279 279 280 280 281 281 282 283 283 283
288 291 289 289 288 291 289 289 291 289 290 294 293 293 295 296 291 293 295 294 294 295 292 295 295 292 291 292 291 289 290 289 288 288 287 287 286 285 284 282 281 281 281 280 280 280 280 280 279 279 278 277 276 275 276 276 277 276 277 278 277 275 274 274 274 273 273 273 273 273 274 274 275 276 277 277 278 278 279 279 280 280 281 282 282 283
289 288 289 288 288 289 285 293 290 292 291 292 295 291 290 291 293 293 291 294 294 291 290 289 291 292 290 291 292 291 290 289 288 288 287 286 284 283 282 281 281 280 279 278 278 278 278 277 277 276 276 274 274 274 275 275 276 277 277 276 274 273 273 272 272 271 271 271 272 273 273 273 274 274 275 276 276 277 278 279 279 279 280 281 281 282
286 287 289 287 287 288 288 292 292 291 289 289 292 293 293 293 290 287 289 288 289 288 288 289 288 289 290 290 292 291 289 289 288 286 286 285 284 283 281 280 279 277 276 275 275 275 275 274 274 274 274 273 273 273 274 275 276 276 275 273 272 272 271 271 270 270 270 270 271 272 272 272 273 273 273 274 275 275 276 277 278 278 279 279 279 279
288 289 286 286 287 290 289 289 287 290 291 290 288 290 292 293 292 287 286 287 287 287 286 286 286 288 290 291 291 290 288 289 288 287 285 284 282 281 280 278 278 276 274 272 271 271 272 272 271 271 272 272 272 272 273 274 275 274 272 271 271 270 269 269 269 268 269 269 270 270 271 272 272 272 272 273 273 274 275 276 276 277 277 279 280 280
288 286 287 287 286 286 287 290 289 288 288 292 289 290 290 290 290 289 286 286 287 287 286 286 284 284 286 288 290 290 288 288 288 287 285 283 281 278 277 276 274 273 271 270 269 269 269 270 270 270 270 271 272 272 273 273 273 273 271 270 269 269 267 267 267 267 268 268 269 269 269 270 271 271 272 272 272 273 274 276 277 277 277 277 280 281
288 289 288 287 286 286 292 291 291 293 292 292 293 290 292 290 289 288 288 288 287 288 287 286 285 284 284 283 284 289 289 287 286 285 281 279 277 276 275 274 273 272 270 269 268 268 268 269 269 269 270 271 272 272 271 271 271 271 269 269 268 267 266 265 265 266 267 267 267 267 267 269 269 270 270 271 272 272 272 273 274 277 278 278 279 279
Wind_Speed
2 8 8 9 10 8 11 4 3 2 5 7 4 4 5 5 2 3 2 3 1 1 9 8 9 9 10 10 10 6 4 5 9 10 8 8 7 7 6 7 8 8 11 3 2 3 5 7 6 7 7 8 10 11 12 12 13 14 13 12 14 12 13 12 12 11 11 10 13 12 13 11 9 8 8 8 8 8 8 8 10 10 9 11 12 12
2 7 8 7 4 8 6 6 7 8 4 11 8 7 3 3 4 2 2 2 1 3 2 1 5 12 13 12 11 9 3 10 11 10 9 9 8 6 7 8 8 8 1 1 4 5 4 4 5 5 5 7 10 12 12 14 14 13 13 13 12 10 12 13 13 11 12 12 11 12 12 12 12 11 9 8 7 9 8 9 9 9 9 12 13 9
6 9 6 4 5 9 6 3 2 6 7 3 6 5 4 4 4 3 1 1 2 1 3 2 5 10 11 10 11 10 10 8 8 8 8 6 7 6 6 7 7 5 6 3 6 5 5 4 4 4 5 6 9 8 10 11 11 11 12 12 11 10 11 12 13 13 12 11 11 11 10 10 10 9 10 11 8 7 9 11 12 11 12 12 10 8
7 8 4 7 8 9 4 1 8 7 5 4 4 6 6 5 7 5 3 3 2 1 2 1 6 9 9 8 10 10 7 6 5 5 8 6 8 9 9 5 4 6 5 6 6 6 4 3 4 4 5 6 5 6 7 8 10 9 10 11 11 11 11 11 12 12 14 12 11 11 11 10 8 4 1 4 4 5 6 8 8 8 8 9 9 9
4 3 3 7 7 12 9 4 8 6 5 2 1 3 3 4 3 3 5 3 1 1 0 2 5 9 5 7 6 3 1 4 6 5 7 8 9 9 8 8 7 11 9 9 8 7 7 6 7 6 4 3 5 7 7 7 8 7 10 10 10 10 11 10 12 12 13 12 10 10 8 5 1 2 5 4 5 8 8 8 9 9 7 8 10 9
1 1 2 7 4 3 9 7 7 7 4 3 4 3 2 5 8 4 8 8 4 4 4 3 4 4 0 5 6 1 2 3 3 3 5 4 4 4 6 5 5 7 7 8 8 7 4 5 6 5 4 4 5 6 6 6 7 8 7 9 9 9 10 10 12 12 12 12 11 10 9 11 11 12 11 11 13 12 14 15 12 13 12 12 10 9
1 1 4 8 10 6 7 7 5 4 5 4 4 3 2 6 8 9 8 4 4 3 2 2 6 3 1 3 2 1 4 8 3 5 5 3 3 2 3 3 3 4 4 5 7 7 6 7 6 6 6 5 5 4 2 4 6 7 7 8 9 9 8 9 10 12 11 13 13 13 12 11 11 11 10 9 9 9 10 10 12 11 8 10 12 9
4 4 4 1 8 9 7 7 6 8 5 6 3 3 6 9 10 8 8 1 2 3 1 0 2 4 5 4 2 2 4 7 6 3 2 1 1 1 2 2 3 3 3 4 5 5 4 4 5 4 1 1 1 1 1 3 5 7 9 8 9 8 8 7 9 12 12 11 12 13 13 12 12 12 11 11 12 11 9 9 8 7 7 7 9 10
3 7 5 8 4 6 9 1 6 4 5 0 1 2 5 6 6 6 3 3 2 1 3 3 3 3 5 4 1 3 4 4 6 3 0 1 1 2 2 3 3 3 3 3 3 2 1 2 2 2 2 1 1 1 2 4 4 5 6 7 7 8 8 8 11 11 13 11 10 11 10 12 11 11 11 9 7 8 8 12 10 8 7 7 7 8
2 2 4 2 9 8 3 2 1 1 4 1 4 6 6 6 6 2 3 4 2 1 5 4 3 3 8 2 2 2 3 7 5 2 2 1 2 2 2 3 3 3 2 1 2 2 1 1 1 1 1 1 1 0 1 1 2 3 4 6 8 8 7 7 9 11 12 12 10 10 11 13 12 10 9 8 9 10 9 11 10 8 8 7 7 7
1 2 3 1 2 4 6 5 1 2 4 13 7 10 6 6 3 2 4 1 1 4 2 3 2 2 4 2 4 4 4 2 2 3 1 0 1 1 0 2 3 4 3 3 2 1 1 1 1 1 3 3 2 2 2 2 2 2 3 5 6 6 5 7 9 10 11 11 10 11 12 13 13 11 11 8 8 7 6 8 9 9 8 7 7 7
3 1 1 1 1 4 2 8 7 2 7 6 4 6 9 4 1 2 2 1 2 3 3 2 1 3 6 2 2 3 1 3 1 5 6 4 4 2 2 2 3 3 3 3 1 2 2 3 3 2 4 3 3 3 3 2 2 3 3 4 6 5 5 5 6 7 9 9 11 11 10 11 11 11 9 11 11 8 8 8 8 8 7 6 6 6
4 3 2 3 2 1 5 11 4 2 3 2 6 8 6 3 1 2 2 4 6 3 2 2 2 2 11 8 3 3 5 5 6 3 1 1 1 1 1 3 3 3 3 2 2 1 2 3 3 4 4 4 3 3 3 3 2 2 3 5 6 5 5 5 5 7 7 8 9 9 10 10 9 10 10 10 10 10 9 8 9 9 7 7 6 6
2 4 1 2 2 4 4 9 6 4 4 5 10 8 5 4 3 4 2 2 3 1 1 1 1 5 3 6 13 14 5 3 4 5 4 3 4 4 5 5 5 3 2 2 2 2 1 1 2 2 3 3 4 4 3 3 3 3 3 4 5 5 5 4 4 5 6 7 7 7 8 8 7 8 9 9 9 9 8 9 9 9 9 9 9 9
6 3 7 10 5 5 2 2 5 4 12 6 4 6 3 4 4 4 3 5 3 1 2 2 1 3 3 1 2 2 2 0 1 2 3 5 5 6 6 6 4 2 2 2 1 1 1 1 1 1 1 2 2 2 3 2 3 3 3 3 5 5 5 6 6 6 7 6 7 7 7 7 6 7 7 7 8 8 9 8 9 9 9 10 10 9
3 2 3 5 2 1 5 2 1 8 6 2 1 3 1 3 2 1 1 1 2 2 1 1 5 3 3 2 6 5 4 5 3 3 3 5 3 2 4 1 1 1 2 1 1 1 1 1 1 1 1 1 1 1 1 1 2 2 3 3 3 3 4 5 5 5 6 5 5 6 7 7 7 6 6 7 7 8 8 9 9 10 10 9 7 6
2 4 3 1 1 1 1 2 0 3 7 5 4 4 1 5 9 6 2 1 1 1 3 2 5 4 6 8 6 4 2 3 3 3 3 3 0 1 3 0 2 1 1 1 0 0 2 2 1 1 2 3 3 3 3 3 2 2 3 3 3 3 3 4 4 4 3 3 3 4 5 5 6 7 8 8 8 9 8 8 8 9 10 8 6 6
7 4 3 1 4 2 2 1 2 5 3 7 3 6 4 2 1 1 2 1 0 2 1 3 5 4 1 3 3 2 4 4 3 4 2 1 1 3 2 1 2 2 2 1 1 1 1 1 2 2 1 1 2 3 3 3 2 1 1 2 2 2 2 2 2 2 2 3 3 3 4 5 5 5 6 6 6 6 7 7 7 8 9 9 6 5
3 4 1 2 1 2 1 2 4 2 2 2 1 5 4 3 4 1 1 1 3 2 2 3 2 5 6 7 1 2 6 7 6 3 2 4 4 5 3 2 3 2 2 3 3 3 3 3 2 2 2 2 1 1 2 2 2 2 2 1 1 2 2 1 0 0 1 2 2 2 3 4 4 4 4 4 5 5 6 7 6 7 8 8 6 6
2 3 1 2 2 0 2 2 7 4 1 4 2 4 2 3 0 5 3 1 0 2 1 2 2 4 6 7 6 5 4 1 3 3 5 4 5 4 2 2 4 4 4 4 4 3 3 3 2 2 2 2 2 3 2 2 2 4 3 2 2 2 3 3 2 2 2 0 1 2 2 3 3 4 4 4 4 4 5 5 6 7 8 9 7 6
3 2 3 2 2 1 5 5 8 10 9 4 5 5 2 1 2 2 2 1 2 2 3 2 2 2 3 5 6 4 3 2 1 4 5 3 2 1 1 4 5 5 5 4 4 3 2 3 2 2 1 2 2 2 2 1 3 3 3 3 2 2 2 0 0 1 1 1 1 2 3 3 3 4 3 4 4 5 5 5 6 6 7 7 8 8
3 2 4 5 3 7 2 4 3 4 1 4 8 11 10 7 5 5 4 3 0 2 3 3 5 0 3 2 5 5 1 1 2 2 2 1 3 2 3 3 4 6 4 3 2 1 1 2 3 3 2 2 2 2 2 1 1 2 3 3 3 3 2 2 1 0 1 1 1 1 2 2 2 3 3 4 4 5 5 5 5 6 7 7 8 7
2 3 5 5 4 2 2 1 2 3 2 0 2 3 3 2 3 4 7 4 2 1 2 0 2 3 2 0 2 3 1 3 1 2 3 2 3 4 3 4 3 1 3 2 1 1 0 0 1 1 2 3 3 3 3 3 2 2 2 2 2 3 4 3 2 1 1 0 0 1 0 1 1 1 3 3 4 4 4 4 5 6 6 7 7 7
3 4 4 2 2 2 2 2 1 1 2 2 3 1 4 8 5 2 1 5 5 3 2 1 2 3 1 1 3 3 4 2 2 4 4 3 4 4 6 5 5 4 3 1 1 1 0 1 1 1 2 3 3 4 5 4 3 3 3 3 2 4 4 3 2 2 1 1 1 1 1 1 0 1 2 3 3 3 3 3 4 4 5 7 6 7
5 4 6 4 2 1 1 1 1 1 1 4 5 5 2 4 7 3 3 1 1 7 5 5 6 4 1 1 2 2 2 3 3 5 5 5 6 6 7 5 3 2 1 2 1 1 1 2 2 3 2 2 3 4 4 4 4 4 4 4 4 4 4 4 3 3 3 3 3 3 3 4 3 3 3 3 3 4 3 3 3 2 3 4 6 6
4 4 9 7 7 7 7 8 9 9 11 5 1 4 7 11 10 7 5 4 5 3 6 5 9 1 1 2 2 3 1 1 2 2 4 3 4 8 6 6 5 4 4 2 1 2 3 2 1 1 2 2 3 3 3 4 4 4 5 5 5 5 5 5 4 5 5 5 5 5 6 5 5 5 5 5 5 5 5 4 4 4 3 3 5 5
3 2 7 10 12 12 14 12 0 9 7 6 12 13 10 7 8 2 3 2 9 4 6 9 7 3 4 5 4 6 3 4 5 4 6 6 4 2 4 5 4 2 2 2 2 0 1 2 2 2 2 3 3 4 4 4 4 4 4 5 6 5 5 5 5 5 5 5 5 5 5 5 5 5 5 5 5 5 5 5 5 4 4 4 4 5
2 3 9 10 11 5 4 4 5 9 13 11 10 9 10 11 10 10 9 11 7 7 8 11 10 7 8 7 7 6 5 4 4 3 5 4 5 7 6 4 2 4 4 2 3 3 4 3 1 2 2 2 2 2 2 3 3 3 4 4 5 5 5 4 4 5 5 5 4 4 5 5 5 5 5 5 5 5 5 5 5 5 4 4 5 5
5 9 9 7 10 3 3 4 8 8 8 8 11 11 13 14 13 14 15 14 11 11 13 13 10 12 10 9 8 9 9 8 10 10 5 3 3 3 3 5 7 7 4 4 6 5 4 4 3 3 3 2 2 1 2 3 2 2 2 3 4 4 4 3 3 4 4 3 4 4 4 4 4 4 4 4 4 4 4 4 4 4 4 4 4 4
4 5 5 5 10 4 2 2 2 7 4 4 9 14 14 13 16 17 16 14 14 14 15 4 12 16 10 14 10 10 8 2 1 3 3 4 7 7 6 7 8 6 6 7 7 6 5 4 3 3 3 3 1 2 2 2 2 2 2 2 3 2 2 1 2 4 4 4 4 3 3 3 4 4 4 4 4 5 4 4 4 4 4 4 4 5
4 3 5 4 4 3 2 2 2 1 6 7 6 8 11 13 15 18 17 15 12 9 9 6 4 11 7 9 9 4 3 3 2 2 6 7 6 8 10 9 8 7 7 5 6 6 5 4 4 5 5 3 2 2 2 2 2 2 2 2 1 1 1 1 4 4 4 4 3 3 3 3 4 3 4 4 4 5 5 5 3 3 3 4 4 5
2 1 2 3 5 3 2 1 3 2 2 1 4 9 12 14 15 14 13 9 10 14 14 9 7 13 6 12 7 7 6 5 7 7 5 6 8 9 10 10 9 8 7 7 7 6 6 8 8 7 6 5 4 3 2 2 2 2 3 2 1 1 1 3 4 4 5 4 4 4 4 4 4 4 4 4 5 5 3 3 3 3 2 2 3 3
5 5 5 5 6 3 2 1 5 4 1 4 8 14 21 17 12 4 1 1 13 14 12 9 16 13 10 11 10 8 8 9 9 8 7 8 8 9 11 11 11 8 6 5 7 8 8 8 6 6 6 4 3 3 2 1 2 3 2 1 1 0 2 4 4 4 5 4 4 4 4 4 4 4 4 5 5 3 3 2 2 3 3 3 3 3
4 7 4 5 7 2 1 4 4 5 9 11 8 11 12 17 15 10 11 15 13 11 11 14 12 2 8 7 11 10 12 12 12 12 12 11 9 9 10 9 9 5 5 5 4 6 7 5 5 4 4 4 4 3 2 2 2 2 1 1 2 3 3 4 4 5 5 5 6 6 6 6 5 5 6 5 4 4 4 4 4 5 4 4 3 3
8 6 3 1 3 3 2 3 6 10 12 4 2 3 15 13 12 17 17 17 14 13 12 12 11 9 10 9 11 11 10 9 8 8 8 8 8 7 10 10 10 8 7 6 6 6 7 7 6 6 5 4 3 2 2 3 2 2 4 3 4 4 5 5 5 6 6 6 6 6 7 7 6 7 6 6 5 5 4 5 5 5 5 5 5 5
8 6 4 1 3 4 2 6 7 8 1 1 1 3 2 6 11 11 11 9 6 11 14 16 18 15 10 9 6 2 4 4 3 7 10 5 1 7 9 8 4 6 7 6 8 7 8 8 8 7 6 4 4 3 3 3 2 4 5 4 5 4 5 5 6 6 6 6 6 6 7 6 6 5 5 5 5 5 5 5 5 6 5 5 4 4
9 4 5 4 2 5 5 9 4 7 9 4 5 4 9 9 10 11 8 13 16 13 14 16 18 15 10 7 4 4 2 2 5 9 5 6 9 7 5 2 4 5 5 5 6 7 6 6 7 6 6 5 4 4 4 3 4 5 5 5 4 4 4 5 5 6 5 5 6 6 6 6 6 5 5 5 5 5 5 5 5 5 4 5 5 5
7 9 4 8 4 3 4 2 1 4 9 9 3 3 4 6 12 13 9 10 6 13 15 16 16 15 10 5 6 5 6 3 8 11 6 8 6 6 3 3 4 6 7 8 7 7 6 6 6 5 6 7 7 5 4 4 4 5 5 5 4 4 5 5 6 5 5 5 5 5 5 5 4 5 5 4 5 5 5 5 4 4 4 5 6 6
4 4 2 4 4 5 4 6 6 8 10 1 5 8 6 5 8 7 3 10 6 11 12 15 15 11 6 9 9 9 5 5 9 5 6 9 6 6 8 6 7 7 7 7 8 9 8 7 7 7 6 7 8 6 5 4 4 5 6 5 4 5 5 6 5 6 6 6 5 5 5 4 4 5 5 5 5 5 6 6 5 5 4 4 5 6
2 3 3 6 4 6 8 8 9 4 5 2 4 2 6 6 10 9 5 8 3 9 12 10 12 12 15 11 8 9 8 5 9 1 4 6 7 5 7 10 9 9 8 7 7 7 8 7 8 8 8 8 7 5 5 4 5 5 6 5 4 5 6 6 6 6 5 5 5 5 4 4 4 5 6 7 6 6 6 6 6 6 7 6 6 7
5 2 5 11 11 7 9 5 4 5 2 2 3 4 7 8 10 10 14 1 8 8 7 10 11 12 5 9 11 6 10 6 2 5 7 10 11 9 7 7 8 7 9 8 8 7 7 7 7 8 8 7 6 5 4 3 4 5 5 4 5 6 5 5 6 6 6 6 5 5 6 5 6 8 7 6 7 7 6 6 7 7 7 8 7 7
4 4 2 4 10 12 11 11 9 5 4 8 2 7 9 9 8 12 2 3 8 7 4 6 8 5 8 11 9 8 3 4 6 7 9 8 9 10 9 9 9 9 8 7 7 6 7 7 9 9 9 8 7 6 5 3 4 4 4 5 6 6 5 6 6 6 7 6 6 7 7 7 8 7 7 7 7 8 8 6 6 6 7 7 7 10
12 10 8 10 7 2 5 7 6 11 5 14 13 2 5 5 6 5 3 1 1 5 8 7 7 7 7 7 4 4 6 5 7 8 8 9 10 11 10 9 9 9 8 8 7 5 6 7 7 8 7 6 7 6 5 4 5 5 4 6 6 6 6 6 7 7 7 7 7 8 8 8 9 9 7 8 8 8 10 8 8 6 6 6 7 8
9 7 4 7 8 7 11 10 9 3 5 13 18 10 10 10 1 6 5 3 3 3 5 4 6 6 7 6 8 5 6 9 7 9 9 9 9 9 8 8 8 8 8 7 6 5 4 8 7 7 7 6 6 5 5 5 5 5 5 7 6 6 6 7 7 7 7 7 8 8 8 9 9 7 7 8 8 8 8 8 8 8 6 5 6 7
10 10 5 6 6 8 9 11 7 6 12 11 8 2 12 13 3 2 2 2 5 4 2 1 6 6 6 8 7 8 6 5 9 10 11 11 10 9 9 8 7 7 7 7 6 4 4 6 7 7 6 6 6 5 6 6 6 6 7 6 6 7 8 8 7 7 7 8 8 8 8 8 8 8 7 7 7 8 8 9 7 8 6 5 6 6
4 2 3 3 4 3 5 3 1 3 1 6 1 1 3 5 3 3 4 2 4 2 5 4 4 7 5 7 10 3 5 10 11 9 8 9 9 8 8 8 7 7 7 6 6 5 5 6 6 6 6 6 6 5 6 5 5 6 6 5 6 7 7 7 6 7 8 7 7 8 8 10 9 7 7 8 6 6 6 7 8 8 8 6 6 6
3 2 3 2 2 8 8 12 9 6 4 8 11 3 1 1 3 3 3 2 1 1 2 2 1 5 6 9 10 10 9 11 10 10 9 9 9 9 9 8 7 6 6 6 5 4 4 4 5 5 5 5 4 5 5 5 6 6 6 6 6 6 7 6 7 7 7 8 8 7 7 8 7 8 7 6 6 6 6 6 7 7 8 6 6 7
3 4 5 4 4 11 4 5 5 2 2 1 3 6 6 7 4 0 1 2 2 2 1 1 2 4 5 6 7 9 10 11 12 12 10 9 9 8 8 8 8 7 6 6 5 4 5 5 5 5 4 4 4 5 4 5 6 6 6 6 6 8 8 8 8 8 7 8 7 6 7 7 9 9 7 7 7 8 8 6 6 7 8 8 7 8
2 7 5 5 7 3 6 6 1 1 3 5 5 6 5 1 4 3 2 3 4 5 3 3 1 1 5 2 6 8 10 10 9 12 12 9 9 8 7 8 7 7 6 6 4 4 4 4 5 5 6 5 4 3 4 5 5 6 7 7 8 9 10 9 10 8 7 7 6 6 6 6 6 7 8 9 8 7 7 8 8 8 10 9 7 7
4 8 2 4 6 7 10 7 8 3 3 6 6 10 8 7 5 5 4 4 5 6 5 5 3 3 2 1 4 8 11 11 9 10 11 9 8 9 9 8 7 7 7 5 5 5 6 6 6 5 5 4 3 3 4 5 5 6 7 8 8 9 8 8 8 7 6 6 6 6 7 6 6 7 7 8 9 10 10 9 12 11 10 12 12 13
8 7 7 7 9 9 9 3 7 5 2 2 2 2 5 6 6 8 9 8 6 5 7 9 7 4 4 2 0 6 9 12 13 10 10 8 8 7 7 8 8 7 6 5 5 5 5 5 6 6 6 4 4 4 5 5 6 7 8 8 8 7 6 7 6 5 5 5 5 6 7 6 7 7 7 7 8 8 10 13 11 10 15 18 21 21
Wind_Direction
331 163 185 191 189 176 193 218 32 93 164 116 128 126 165 168 114 36 77 55 303 226 226 225 247 267 267 262 268 258 158 252 262 257 249 247 238 230 228 230 233 233 242 66 284 248 234 230 223 218 218 220 220 221 218 213 214 215 215 212 220 217 217 220 220 219 214 212 221 226 222 217 208 210 212 215 213 208 203 199 205 198 193 198 201 203
211 192 203 189 172 178 125 106 123 89 96 151 157 172 159 228 172 102 116 67 49 248 173 63 260 260 259 260 259 259 206 248 238 242 242 243 237 229 225 236 230 236 251 253 255 232 220 223 213 209 214 213 214 219 214 215 214 212 213 213 215 214 217 220 220 219 219 216 215 219 225 228 229 226 220 220 208 204 199 197 202 212 210 208 212 199
193 209 179 121 104 93 99 98 30 113 126 89 170 166 155 179 69 119 103 100 69 199 246 119 253 256 253 252 251 240 236 241 233 237 248 247 239 235 231 240 247 251 253 233 250 239 241 224 217 208 214 217 224 226 215 219 216 213 211 216 216 212 212 222 222 222 222 220 217 215 226 227 234 240 243 235 230 224 230 226 219 212 213 216 214 201
196 216 113 126 136 119 87 128 108 90 70 136 123 164 198 131 181 186 158 144 70 311 344 315 281 275 265 250 247 244 237 253 271 278 270 262 257 248 242 246 268 272 266 255 248 250 230 225 220 207 220 221 217 224 223 213 212 210 213 213 212 214 215 221 223 223 226 225 228 225 233 230 236 233 266 247 224 212 224 228 217 213 209 206 210 205
176 33 3 154 173 155 147 161 158 166 179 334 248 163 133 159 229 345 137 138 134 130 267 246 257 266 223 249 229 135 266 276 264 250 246 247 242 259 281 282 256 260 264 267 263 255 245 239 240 234 217 204 215 221 219 208 203 210 213 211 210 211 214 220 225 217 223 225 224 230 236 253 276 264 254 241 234 217 214 223 215 209 193 202 205 203
151 30 172 130 140 112 133 166 189 175 187 171 248 230 186 184 141 99 118 145 181 196 70 348 275 249 267 247 249 326 314 238 191 260 243 217 243 240 258 260 240 237 248 255 261 261 255 251 259 255 234 215 224 225 217 207 207 208 209 206 204 209 211 216 221 220 214 216 217 213 214 217 226 236 232 230 232 233 235 235 236 238 228 222 211 205
63 102 223 157 155 153 167 179 178 209 182 176 196 161 188 154 125 134 144 183 184 217 82 314 242 268 111 276 162 331 310 283 237 233 264 261 255 250 265 276 263 259 254 243 252 259 257 248 243 249 244 234 233 229 194 203 211 209 210 203 202 206 207 207 212 211 208 214 217 216 215 217 218 226 231 230 233 235 235 236 244 245 244 241 234 217
127 130 152 129 146 159 161 192 184 192 155 205 59 150 126 135 139 158 148 232 54 38 129 88 4 276 292 260 41 317 284 276 273 210 205 197 251 280 312 308 301 295 273 268 266 261 252 257 251 256 262 251 260 304 201 205 196 200 203 199 201 203 203 196 206 207 204 208 212 215 218 220 224 225 233 229 235 237 244 234 224 225 221 219 227 222
141 146 192 150 170 161 189 162 120 205 190 166 168 240 141 133 115 136 138 105 50 271 219 110 349 261 242 269 85 339 275 238 244 155 147 85 48 26 10 7 347 331 318 292 276 280 279 271 262 262 260 10 318 252 215 196 189 190 192 196 196 200 197 196 204 204 205 209 211 212 216 222 226 231 234 236 236 237 232 240 235 231 225 222 220 227
337 206 194 160 158 183 73 16 24 135 144 237 135 99 102 92 77 73 115 105 151 205 243 138 349 246 269 191 259 9 310 267 237 95 83 42 42 359 8 18 5 360 350 328 290 295 314 323 335 315 308 60 53 10 232 161 162 173 179 188 189 196 194 193 202 204 205 207 209 211 216 220 225 227 238 242 239 237 238 240 241 236 231 225 222 222
305 359 278 53 232 49 115 53 42 359 64 130 183 112 89 65 62 65 51 62 147 241 221 49 329 283 293 226 218 167 208 289 92 119 149 189 157 125 147 356 356 359 358 2 354 30 22 33 24 37 75 69 72 63 65 91 119 135 167 172 184 185 187 196 201 201 205 207 210 217 220 224 228 232 235 231 232 231 230 233 237 237 237 233 230 223
82 93 128 60 9 136 112 87 40 73 114 155 146 130 110 61 98 93 69 336 218 236 89 346 334 289 216 256 255 242 315 232 331 128 128 114 92 77 78 34 5 355 347 334 2 75 103 123 98 112 94 88 93 101 93 95 111 144 151 167 171 177 193 193 196 200 207 209 215 221 225 230 233 236 236 238 238 232 232 234 242 244 243 239 235 233
106 108 44 48 253 214 152 99 81 106 258 209 143 152 154 143 139 184 172 211 208 234 79 349 249 228 237 252 309 276 243 199 212 237 161 315 296 294 1 356 356 346 319 333 2 29 90 94 100 96 102 114 109 104 106 111 117 127 145 160 162 169 180 187 193 199 207 212 219 222 227 233 238 239 240 244 246 245 241 239 241 242 242 241 238 233
119 140 161 79 180 226 248 140 142 172 217 183 165 160 155 158 172 207 176 354 332 3 8 92 7 266 313 269 249 245 207 146 206 231 257 266 281 309 323 329 338 336 325 332 323 332 11 63 88 99 118 125 131 133 132 132 140 142 152 161 159 156 169 168 187 200 205 215 222 224 228 235 238 241 243 245 247 246 244 244 242 240 243 244 238 237
153 228 200 166 179 135 223 296 177 165 165 199 9 187 195 157 158 188 171 201 215 111 109 216 212 234 160 210 36 284 6 62 231 260 269 262 266 276 287 282 279 284 47 1 341 336 347 9 352 47 68 79 83 101 118 131 121 136 139 154 153 146 167 176 183 191 203 210 213 216 223 229 232 240 242 244 246 248 247 245 246 246 246 249 250 243
231 61 41 2 332 351 185 297 343 104 61 31 246 24 168 208 27 202 63 3 117 140 149 198 237 315 251 25 261 236 261 266 220 240 234 258 208 244 272 221 116 62 50 33 325 290 258 278 260 164 149 133 131 111 88 116 129 147 139 144 145 150 161 178 183 194 200 205 204 212 220 224 229 236 242 246 245 249 253 256 255 256 253 251 249 240
39 190 3 339 109 72 14 311 304 285 185 177 143 199 131 24 99 115 111 111 309 326 244 128 278 251 277 284 260 126 190 207 143 169 195 231 227 231 248 231 122 44 37 70 315 182 129 160 186 194 166 159 155 158 155 145 153 143 140 156 159 155 161 183 194 200 201 205 204 210 214 220 225 232 238 243 249 254 258 259 262 262 264 259 247 249
170 117 20 354 143 33 344 326 56 49 317 105 216 169 121 215 128 155 192 93 315 244 246 116 232 250 122 259 35 306 183 211 190 198 188 147 158 214 193 78 64 38 16 13 304 290 271 153 141 149 145 95 102 114 125 119 135 142 139 156 154 159 165 164 189 208 210 220 227 230 224 227 229 236 241 246 255 258 262 260 260 263 264 257 250 247
128 107 108 348 1 347 107 270 89 51 21 299 12 128 167 161 197 45 130 192 168 216 254 205 292 276 229 227 319 219 209 211 195 168 169 179 184 193 159 105 84 80 108 118 145 161 156 138 119 109 100 64 49 48 62 86 112 124 114 88 26 38 41 34 40 251 215 231 244 243 247 243 240 243 251 256 256 261 260 260 257 260 266 267 251 249
14 138 107 45 116 109 305 240 191 163 59 59 154 126 336 288 315 160 204 25 218 230 83 257 108 258 176 218 228 237 206 319 112 146 204 179 179 163 136 125 109 119 129 135 134 130 118 107 94 95 92 85 65 54 41 53 75 84 75 65 51 16 6 360 341 330 306 276 264 272 273 259 257 261 259 260 263 262 261 268 273 275 274 272 275 265
147 322 149 95 299 178 182 207 214 168 162 124 175 167 143 52 312 353 47 152 222 191 197 284 257 223 210 216 228 239 89 65 110 191 187 171 165 121 142 135 137 139 141 137 129 127 123 116 116 107 87 74 65 54 39 51 104 115 125 122 121 116 116 85 332 299 298 306 278 274 278 287 285 280 274 273 266 268 269 273 274 274 277 284 274 275
113 218 140 136 126 217 181 22 316 320 306 187 170 186 179 138 149 177 210 82 7 211 213 168 247 36 285 114 218 225 118 169 227 255 262 231 207 193 159 143 145 147 143 134 115 93 116 124 115 111 115 142 157 126 107 119 143 133 111 125 126 145 111 97 97 48 303 236 227 226 249 264 282 284 289 281 273 266 269 268 271 279 279 272 276 271
119 96 106 166 204 148 341 355 319 295 307 192 331 240 154 209 121 182 209 181 90 41 49 7 335 268 82 172 239 250 211 186 218 246 253 238 182 157 148 144 170 145 136 140 120 89 353 358 73 103 114 120 121 110 97 84 65 53 63 93 117 112 95 99 87 81 60 109 135 135 199 234 250 263 256 261 262 260 263 270 278 283 275 277 280 277
84 113 92 41 94 318 326 242 185 233 289 264 262 51 174 199 201 228 2 133 162 123 175 189 241 247 97 161 243 256 261 290 232 237 240 175 155 152 154 164 171 177 190 217 238 212 167 329 313 210 130 91 63 53 49 46 37 33 36 25 40 64 64 84 77 97 116 137 132 127 135 117 121 215 229 247 251 256 261 265 267 270 278 283 283 278
171 203 124 124 103 138 267 144 173 126 183 233 221 174 233 64 80 95 102 34 176 206 176 174 235 244 135 200 259 245 258 262 216 187 221 172 164 158 163 167 171 187 187 199 166 77 89 104 50 16 14 49 63 65 57 46 36 28 25 18 12 18 30 46 47 48 44 33 30 39 34 27 18 359 344 329 327 318 318 307 299 284 274 278 283 285
196 155 155 157 158 175 191 200 204 208 207 189 260 164 186 168 143 142 182 180 223 173 177 206 234 225 30 299 281 231 271 241 204 153 187 273 166 166 170 172 178 183 194 203 196 180 140 89 61 15 14 40 53 64 69 54 38 24 18 22 9 3 7 18 23 35 27 20 18 16 13 10 2 358 345 338 333 332 330 324 313 310 298 278 279 284
176 151 204 191 187 190 198 200 190 77 85 178 208 174 176 191 179 144 61 138 212 169 184 223 236 113 191 188 220 214 191 201 173 181 195 188 206 215 173 174 183 200 212 212 217 285 318 176 143 92 47 20 19 32 41 41 33 19 10 15 14 9 5 8 15 30 34 21 22 9 7 359 355 347 342 343 339 332 326 324 320 312 304 299 288 287
97 192 210 218 224 228 52 104 208 162 174 198 143 172 168 165 178 176 191 215 150 96 238 233 218 212 206 182 209 198 199 193 261 224 176 203 197 183 177 169 219 252 235 237 256 231 207 176 148 92 56 20 23 34 73 63 46 18 10 6 1 2 6 4 14 31 37 28 18 16 2 357 348 346 344 339 336 331 327 323 317 311 305 299 291 282
155 205 205 190 229 107 25 116 152 165 189 170 178 158 166 177 171 190 213 218 130 201 224 232 176 217 204 193 208 206 190 192 198 208 183 145 142 137 169 198 214 223 201 194 217 210 203 194 168 159 176 182 199 141 77 69 64 47 30 14 5 3 8 356 28 58 59 47 36 20 1 349 348 343 342 338 332 328 325 317 309 302 296 288 278 275
138 225 153 175 212 115 105 103 264 158 118 145 172 178 178 163 189 200 214 205 184 215 228 100 169 215 196 187 201 209 209 190 60 65 107 166 189 183 186 213 220 215 200 204 197 195 199 192 175 186 185 192 166 92 79 77 70 49 41 30 8 3 353 329 68 77 72 61 44 20 9 355 357 352 349 351 345 340 330 318 312 301 292 285 278 274
177 206 109 140 187 201 88 20 47 95 158 169 193 183 176 185 198 205 213 218 211 258 260 244 244 259 215 173 210 190 97 98 75 156 200 204 187 191 205 214 219 219 206 186 183 188 188 181 192 191 190 175 156 142 116 99 85 92 84 55 25 11 319 12 75 74 65 59 43 29 15 16 10 358 6 0 345 342 334 325 317 305 294 289 284 280
224 179 57 117 190 210 19 98 97 64 43 95 157 189 196 195 205 210 214 199 182 215 227 239 264 260 175 153 197 215 206 183 204 212 212 213 211 207 210 219 220 217 201 187 184 180 177 186 188 180 166 155 147 141 131 109 111 119 86 79 51 6 17 69 71 75 66 52 38 31 25 20 11 10 4 0 353 340 330 311 302 302 303 300 297 293
173 140 156 167 197 192 344 330 136 108 83 264 234 209 203 202 204 177 322 69 206 206 217 208 229 236 117 170 185 191 194 218 221 210 221 235 223 211 217 221 221 216 202 187 178 183 184 180 172 152 137 137 132 124 109 118 118 92 85 74 30 10 60 68 65 66 60 44 37 28 23 18 14 7 6 1 345 334 321 323 313 320 320 322 319 296
136 160 161 165 205 120 347 174 152 144 214 224 227 210 169 194 194 180 204 213 216 200 216 219 237 228 134 178 189 185 199 209 213 215 211 215 214 216 229 236 239 214 169 193 181 166 164 153 142 128 117 108 102 88 81 75 84 106 107 85 60 60 59 63 54 55 44 36 28 19 15 11 6 5 359 351 347 346 344 347 348 342 329 321 325 321
158 164 148 193 137 138 174 188 155 214 227 219 355 170 186 190 171 197 216 210 206 209 237 261 264 252 184 192 195 204 204 220 228 239 227 231 237 236 233 229 226 212 196 173 160 161 159 151 137 129 122 114 109 108 131 111 95 106 80 57 62 47 51 45 47 43 32 28 19 13 10 6 2 356 348 346 346 341 344 341 332 335 335 333 329 324
155 150 137 108 102 76 136 176 209 224 194 201 224 46 351 161 194 208 252 252 222 210 216 233 240 240 205 197 209 188 211 248 295 255 244 256 244 229 234 236 190 191 198 181 167 158 152 148 140 134 124 120 119 108 92 85 74 78 74 61 59 53 48 45 47 40 28 25 17 9 3 357 353 347 342 340 338 335 334 335 326 324 321 315 308 293
152 105 165 147 193 167 184 198 239 8 320 216 207 193 166 163 154 176 215 240 214 203 201 221 237 243 239 219 191 150 117 10 264 258 165 200 219 222 225 174 200 185 152 130 121 121 107 111 116 116 115 105 91 85 66 69 76 85 83 69 56 55 47 45 46 31 19 20 9 2 353 350 344 334 333 329 326 323 320 317 314 303 309 296 287 288
167 177 183 168 201 157 147 181 241 244 254 229 153 71 193 157 168 184 198 258 191 197 197 209 228 234 231 201 212 144 116 223 257 253 157 208 187 134 101 103 100 107 100 105 99 104 111 109 104 104 111 106 83 65 64 61 83 94 85 70 52 46 41 41 34 18 11 4 355 347 343 337 331 320 315 311 305 303 302 298 290 294 307 302 301 296
15 40 133 192 159 159 185 194 196 206 233 39 162 175 168 166 158 118 172 260 211 176 190 204 222 234 217 223 214 125 156 220 243 245 158 183 128 141 123 111 111 107 110 116 128 124 121 112 112 112 96 81 69 49 50 66 85 93 82 65 46 42 41 31 17 7 357 346 339 333 332 328 324 314 309 304 307 311 308 313 314 302 302 298 296 286
151 176 152 196 186 195 189 206 220 200 247 210 200 186 183 139 131 136 212 248 142 149 189 186 206 217 223 215 128 165 180 231 250 261 86 101 111 105 122 131 123 115 105 104 87 100 110 120 111 84 71 65 59 45 47 66 76 73 75 62 50 43 33 16 360 343 335 331 328 328 328 324 317 318 324 320 317 321 319 317 316 322 322 314 311 311
174 179 207 197 197 191 191 227 265 265 252 225 202 154 150 167 156 173 212 170 174 185 173 177 192 212 154 134 169 177 213 231 41 103 118 118 106 100 85 84 94 99 109 105 106 106 96 84 82 81 75 69 53 45 44 65 78 76 72 66 55 42 21 357 344 338 335 332 330 333 334 334 339 334 330 330 323 319 316 319 317 315 320 314 312 313
183 162 205 201 202 201 201 213 224 285 224 151 13 157 174 140 193 210 195 119 153 176 185 201 209 157 145 170 179 209 87 96 129 116 126 122 115 118 112 107 99 83 72 80 91 98 102 98 93 87 74 60 51 43 39 51 80 76 73 65 47 27 6 356 350 343 338 337 339 340 339 340 340 337 330 329 326 323 315 313 308 299 303 306 307 306
175 168 182 186 191 200 194 205 211 240 224 146 119 37 295 201 230 129 160 86 135 148 165 189 198 193 167 173 173 103 126 116 130 137 119 121 123 127 128 125 116 115 113 112 100 81 102 102 89 80 75 60 50 42 37 53 73 68 69 55 34 12 7 358 352 346 344 345 347 344 338 338 338 335 333 329 327 320 315 309 308 298 287 283 289 286
164 180 176 204 182 175 183 194 211 233 100 160 156 185 195 209 52 157 132 173 176 172 182 169 211 184 188 150 145 129 132 130 116 129 126 122 120 119 113 105 103 99 93 81 91 100 100 102 99 95 78 64 53 46 37 47 65 64 61 46 23 11 8 2 355 351 352 351 344 336 339 338 335 333 332 328 323 315 305 308 307 302 299 294 295 300
193 199 163 190 154 193 194 209 183 159 165 197 186 83 180 205 139 192 87 109 161 221 167 220 189 167 178 141 134 142 140 169 149 152 143 147 137 136 131 126 115 113 108 108 99 86 84 105 111 106 90 69 52 47 41 39 53 54 50 28 26 15 9 358 353 356 356 348 340 338 334 332 329 324 322 325 324 320 316 311 313 309 309 300 289 284
338 216 62 111 206 227 305 249 344 89 202 216 260 292 250 155 79 116 144 149 248 171 172 191 167 159 154 150 126 171 157 154 145 147 129 133 130 115 110 104 97 96 100 99 99 88 100 99 97 101 99 76 55 39 47 41 52 56 42 32 30 19 7 357 0 5 356 347 340 336 334 332 327 328 326 316 309 303 298 300 305 305 303 301 291 287
240 157 137 193 154 173 234 219 212 212 192 202 197 148 332 6 194 176 202 198 44 106 138 13 156 156 161 165 168 153 153 156 146 143 139 133 133 135 134 124 115 112 109 99 95 110 111 116 102 100 99 82 50 44 40 42 51 52 44 42 30 21 10 9 13 3 353 347 337 331 333 330 330 327 321 323 319 310 306 302 299 297 295 293 303 303
253 169 185 195 178 200 226 200 227 99 53 25 184 176 228 224 180 239 34 61 88 90 89 133 140 139 160 183 181 143 149 159 149 151 151 148 143 141 133 129 125 113 93 84 82 78 84 81 94 99 100 82 47 33 26 30 46 45 48 43 28 19 14 14 8 354 342 338 337 332 331 330 327 327 321 324 323 318 314 307 300 297 294 300 307 307
148 129 203 184 204 256 319 277 127 128 141 210 213 253 259 235 157 163 169 151 144 135 124 96 41 211 199 191 134 132 141 170 162 154 146 142 138 137 136 129 123 115 112 102 77 71 91 99 92 87 85 75 50 26 32 36 42 42 46 33 27 20 18 5 350 341 339 336 334 330 329 326 326 325 322 318 313 300 293 300 303 295 289 273 261 269
122 195 141 142 209 223 219 203 129 152 221 206 196 208 218 198 177 141 135 148 175 155 160 138 93 36 62 44 171 155 148 156 155 148 140 141 134 128 128 124 120 117 107 102 99 97 94 89 91 92 92 82 60 40 47 43 36 44 47 36 30 24 14 354 342 338 335 330 329 330 332 328 322 325 319 317 315 313 303 275 262 267 279 292 284 270
199 171 157 186 193 218 220 111 161 228 339 232 171 184 179 167 157 163 191 183 187 183 170 152 139 140 147 94 325 173 160 152 156 141 124 128 131 127 130 136 137 134 125 128 117 100 98 97 94 92 86 79 60 55 47 34 26 41 37 39 27 18 3 354 342 331 325 329 327 325 321 318 320 321 316 308 309 310 310 314 307 271 261 268 283 288